Volver al catálogo

CUBESAT XI 5

ActivoRadioaficionadoSSO
NORAD 28895·PAYLOAD·🇯🇵 Japan

Lanzado Oct 27, 2005 desde Plesetsk Cosmodrome

Loading…

Próximos Pases (próximas 24 horas)

TLE

ActualizadoSource: Space-Track

Época: Sep 13, 2026, 09:17 UTC

1 28895U 05043F   26256.38689568  .00000953  00000-0  15723-3 0  9996
2 28895  98.3101  53.9328 0012785 287.3059  72.6748 14.72823236114731

Sigue CUBESAT XI 5 en tiempo real con AllMySat

Download on the App Store